Location: Hertford
(51.8000°N, 0.0667°W)
Time: 06:15:48
(UTC+00:00)

Terra - Pass Details

Date: 18 September 2020
Orbit: 701 x 703 km, 98.2° (Epoch: 22 October)

Event Time Altitude Azimuth Distance (km) Brightness Sun altitude
Exits shadow 20:19:10 19° 58° (ENE) 1,658 3.5 -20.2°
Maximum altitude 20:19:15 19° 56° (ENE) 1,657 3.5 -20.2°
Drops below altitude 10° 20:22:33 10° 13° (NNE) 2,184 4.6 -20.7°
Sets 20:25:22 0° 356° (N) 3,106 5.7 -21.1°
